"Pseudo-MPEC" for P11DBYg

Created 2023 Mar 22 15:22:11 UT using Find_Orb

Click here for an explanation of pseudo-MPECs

 
 Astrometry: 
     P11DBYg* C2023 03 18/oiUE`sDEL''lQ-ZaSAb+*u[CBYrjUUy%ETJAstrometry+(IPT*F51
     P11DBYg  C2023 03 182![s[wLV_2`Zm]VLredacted;UF\dFa/Teo\4yk?1l+'QW]7CwK7F51
     P11DBYg  C2023 03 18Z(ci(yS(`=7L2s`1Yw0Z(click719N]hereKNN+0kNlk(OQyfW19F51
     P11DBYg  C2023 03 18rvXQsheUZforQI.S`4[4?k%H8p*g)S3:l+jJexplanation7ms'SF51

Station data:
(F51) Pan-STARRS 1, Haleakala  (N20.707234 W156.255910)  US/Hawaii.
   Observers J. Bulger, T. Lowe, A. Schultz, M. Willman. Measurers K.
   Chambers, S. Chastel, T. de Boer, L. Denneau, J. Fairlamb, H. Flewelling,
   M. Huber, C.-C. Lin, E. Magnier, Y. Ramanjooloo, R. Wainscoat, R. Weryk.
   1.8-m Ritchey-Chrétien + CCD.

Orbital elements:  P11DBYg
   Perihelion 2022 Sep 23.34489 +/- 352 TT =  8:16:38 (JD 2459845.84489)
Epoch 2023 Mar 18.0 TT = JDT 2460021.5   Earth MOID: 0.5276   Ma: 0.0994
M  73.07008754 +/- 80               (J2000 ecliptic)             AutoNEOCP
n   0.41598612 +/- 0.225            Peri.  329.68998 +/- 70
a   1.77725666 +/- 0.641            Node   113.50449 +/- 49
e   0.1605321 +/- 0.255             Incl.   22.17004 +/- 41
P   2.37/865.40d           H 19.84  G  0.15   U 11.8  SR
q 1.49194981 +/- 1.08    Q 2.06256351 +/- 31.5
From 4 observations 2023 Mar. 18 (48.8 min); mean residual 0".07
Residuals in arcseconds: 
230318 F51  .00   .09+    230318 F51  .00   .13-    
230318 F51  .00   .06-    230318 F51  .00   .11+    

Ephemerides (geocentric):
Date (UTC) HH   RA             Dec           delta  r     elong  mag " sig PA
---- --------  ------------   ------------  ------ ------ -----  --- --------
2023 03 22 15  12 26 22.048   +43 14 19.39  .88893 1.7481 135.9 22.0  665  16
2023 03 22 16  12 26 19.027   +43 14 37.45  .88912 1.7482 135.9 22.0  671  17
2023 03 22 17  12 26 16.005   +43 14 55.42  .88932 1.7483 135.9 22.0  678  17
2023 03 22 18  12 26 12.983   +43 15 13.31  .88951 1.7484 135.9 22.0  685  17
2023 03 22 19  12 26 09.962   +43 15 31.12  .88971 1.7485 135.9 22.0  692  17
2023 03 22 20  12 26 06.940   +43 15 48.85  .88990 1.7486 135.9 22.0  699  17
2023 03 22 21  12 26 03.919   +43 16 06.50  .89010 1.7487 135.8 22.0  706  17
2023 03 22 22  12 26 00.897   +43 16 24.07  .89029 1.7487 135.8 22.0  713  18
2023 03 22 23  12 25 57.876   +43 16 41.55  .89049 1.7488 135.8 22.0  720  18
2023 03 23 00  12 25 54.855   +43 16 58.96  .89068 1.7489 135.8 22.0  727  18
2023 03 23 01  12 25 51.833   +43 17 16.29  .89088 1.7490 135.8 22.0  734  18
2023 03 23 02  12 25 48.812   +43 17 33.53  .89107 1.7491 135.8 22.0  741  18
2023 03 23 03  12 25 45.791   +43 17 50.69  .89127 1.7492 135.7 22.0  748  18
2023 03 23 04  12 25 42.771   +43 18 07.78  .89147 1.7493 135.7 22.0  756  19
2023 03 23 05  12 25 39.750   +43 18 24.78  .89166 1.7494 135.7 22.0  763  19
2023 03 23 06  12 25 36.730   +43 18 41.70  .89186 1.7494 135.7 22.0  770  19
2023 03 23 07  12 25 33.709   +43 18 58.55  .89206 1.7495 135.7 22.0  777  19
2023 03 23 08  12 25 30.689   +43 19 15.31  .89226 1.7496 135.7 22.0  784  19
2023 03 23 09  12 25 27.669   +43 19 31.99  .89245 1.7497 135.6 22.0  791  19
2023 03 23 10  12 25 24.650   +43 19 48.59  .89265 1.7498 135.6 22.0  799  20
2023 03 23 11  12 25 21.630   +43 20 05.11  .89285 1.7499 135.6 22.0  806  20
2023 03 23 12  12 25 18.611   +43 20 21.54  .89305 1.7500 135.6 22.0  813  20
2023 03 23 13  12 25 15.592   +43 20 37.90  .89325 1.7501 135.6 22.0  820  20
2023 03 23 14  12 25 12.573   +43 20 54.18  .89345 1.7501 135.6 22.0  827  20
2023 03 23 15  12 25 09.555   +43 21 10.38  .89364 1.7502 135.5 22.0  835  20
2023 03 23 16  12 25 06.537   +43 21 26.49  .89384 1.7503 135.5 22.0  842  21
2023 03 23 17  12 25 03.519   +43 21 42.53  .89404 1.7504 135.5 22.0  849  21
2023 03 23 18  12 25 00.501   +43 21 58.49  .89424 1.7505 135.5 22.0  857  21
2023 03 23 19  12 24 57.484   +43 22 14.36  .89444 1.7506 135.5 22.0  864  21
2023 03 23 20  12 24 54.467   +43 22 30.15  .89464 1.7507 135.5 22.0  872  21
2023 03 23 21  12 24 51.451   +43 22 45.87  .89485 1.7508 135.4 22.0  879  22
2023 03 23 22  12 24 48.435   +43 23 01.50  .89505 1.7508 135.4 22.0  886  22
2023 03 23 23  12 24 45.419   +43 23 17.06  .89525 1.7509 135.4 22.0  894  22
2023 03 24 00  12 24 42.403   +43 23 32.53  .89545 1.7510 135.4 22.0  901  22
2023 03 24 01  12 24 39.388   +43 23 47.92  .89565 1.7511 135.4 22.0  909  22
2023 03 24 02  12 24 36.374   +43 24 03.23  .89585 1.7512 135.4 22.0  916  22
2023 03 24 03  12 24 33.359   +43 24 18.47  .89606 1.7513 135.3 22.0  924  23
2023 03 24 04  12 24 30.346   +43 24 33.62  .89626 1.7514 135.3 22.0  931  23
2023 03 24 05  12 24 27.332   +43 24 48.69  .89646 1.7515 135.3 22.0  939  23
2023 03 24 06  12 24 24.319   +43 25 03.68  .89666 1.7515 135.3 22.0  947  23
2023 03 24 07  12 24 21.307   +43 25 18.59  .89687 1.7516 135.3 22.0  954  23
2023 03 24 08  12 24 18.295   +43 25 33.42  .89707 1.7517 135.2 22.0  962  24
2023 03 24 09  12 24 15.283   +43 25 48.17  .89727 1.7518 135.2 22.0  970  24
2023 03 24 10  12 24 12.272   +43 26 02.84  .89748 1.7519 135.2 22.0  977  24
2023 03 24 11  12 24 09.262   +43 26 17.43  .89768 1.7520 135.2 22.0  985  24
2023 03 24 12  12 24 06.252   +43 26 31.94  .89789 1.7521 135.2 22.0  993  24
2023 03 24 13  12 24 03.243   +43 26 46.37  .89809 1.7522 135.2 22.0 1001  24
2023 03 24 14  12 24 00.234   +43 27 00.72  .89830 1.7522 135.1 22.0 1009  25